Regional Weather Roundup
Issued by NWS State College, PA

Home | Current Version | Previous Version | Text Only | Print | Product List | Glossary Off
Versions: 1 2 3 4 5 6 7 8 9 10 11 12 13 14 15 16 17 18 19 20 21 22 23 24 25 26 27 28 29 30 31 32 33 34 35 36 37 38 39 40 41 42 43 44 45 46 47 48 49 50

000
ASUS41 KCTP 180203
RWRCTP

REGIONAL WEATHER ROUNDUP
NATIONAL WEATHER SERVICE STATE COLLEGE PA
1000 PM EDT THU AUG 17 2017

Note: "fair" indicates few or no clouds below 12,000 feet with no
significant weather and/or obstructions to visibility.

* = STATION THAT DOES NOT REPORT PRECIPITATION /E.G. RAIN...SNOW...ETC/
    THUNDER OR FOG.

PAZ002>004-007>009-013>016-020>023-029>032-180300-
WESTERN PENNSYLVANIA

CITY           SKY/WX    TMP DP  RH WIND       PRES   REMARKS
ERIE           CLOUDY    74  71  91 S12       29.79F
MEADVILLE      CLOUDY    72  72 100 CALM      29.86S
FRANKLIN*      CLOUDY    73  68  83 S14       29.88F
NEW CASTLE     FAIR      74  73  97 VRB6      29.87R
BEAVER COUNTY  NOT AVBL
BUTLER*        LGT RAIN  74  72  93 S7        29.89S
PITTSBURGH INT CLOUDY    75  73  93 SW12      29.89R
PITTSBURGH     LGT RAIN  75  70  84 SW12G24   29.90R
INDIANA*       MOCLDY    77  72  83 S3        29.93S
LATROBE        DRIZZLE   81  70  69 S10       29.91R
WASHINGTON CO* CLOUDY    72  66  83 S3        29.91F
$$

PAZ004>006-010>012-017>019-024>028-033>037-041-042-045-046-049>053-180300-
CENTRAL PENNSYLVANIA

CITY           SKY/WX    TMP DP  RH WIND       PRES   REMARKS
BRADFORD       LGT RAIN  73  70  90 S8        29.92R
DUBOIS         CLOUDY    77  68  73 VRB6      29.91S
CLEARFIELD     CLOUDY    78  70  76 S5        29.93R
JOHNSTOWN      PTCLDY    75  70  84 S8        29.98R
ALTOONA        PTCLDY    74  72  93 S6        29.95S
STATE COLLEGE  NOT AVBL
WILLIAMSPORT   PTCLDY    81  70  69 S15       29.89R
SELINSGROVE    MOCLDY    78  73  84 S6        29.91S
FT INDIANTOWN  CLOUDY    77  75  91 CALM      29.95R
CAPITAL CITY   MOCLDY    80  71  74 S9        29.93R
HARRISBURG     CLOUDY    80  73  79 S8        29.93R
YORK           MOCLDY    77  73  87 CALM      29.94R
$$

PAZ038>040-043-044-047-048-054-055-060>062-067>071-180300-
EASTERN PENNSYLVANIA

CITY           SKY/WX    TMP DP  RH WIND       PRES   REMARKS
SCRANTON       CLOUDY    77  65  66 SE10G18   29.94F
MOUNT POCONO   CLOUDY    69  67  93 SE8       30.02S
ALLENTOWN      CLOUDY    80  68  66 S6        29.96R
QUAKERTOWN*    PTCLDY    77  68  73 S3        29.98R
READING        MOCLDY    78  73  84 S9        29.94S
LANCASTER      CLOUDY    77  74  90 SE6       29.95R
COATESVILLE    PTCLDY    73  73 100 CALM      29.99R
POTTSTOWN      PTCLDY    77  71  82 S5        29.98R
BLUE BELL      CLOUDY    75  70  83 S3        29.98R
DOYLESTOWN     MOCLDY    75  68  78 VRB5      29.97R
WILLOW GROVE   NOT AVBL
NORTH PHILA    PTCLDY    80  68  66 S5        29.98R
PHILADELPHIA   CLOUDY    78  70  76 S8        29.96R
$$




USA.gov is the U.S. government's official web portal to all federal, state and local government web resources and services.